Location: Big Prairie
(40.6673°N, 82.0952°W)
Time: 17:47:33
(UTC+00:00)

Cosmos 841 Rocket - Pass Details

Date: 29 June 2022
Orbit: 745 x 772 km, 74.0° (Epoch: 18 August)

Event Time Altitude Azimuth Distance (km) Brightness Sun altitude
Exits shadow 08:03:28 27° 193° (SSW) 1,405 4.3 -17.0°
Maximum altitude 08:06:19 83° 108° (ESE) 758 3.4 -16.7°
Drops below altitude 10° 08:11:28 10° 21° (NNE) 2,277 7.1 -16.1°
Sets 08:13:51 0° 21° (NNE) 3,209 8.2 -15.9°
